Weather in Giessen

Germany     50°34′58″N   8°40′09″E
temp.,
°C
wind,
m/s
gust,
m/s
humid.,
%
clouds,
%
prec.,
mm/h
press.,
hPa
HPBL,
m
1 august, sun
sun123:00+14wnw228316 0.0 101011
02:00+13wnw1190100 0.0 101011
05:00+12wnw1193100 0.0 101011
08:00+14wnw2485100 0.0 1010231
11:00+18w346883 0.3 10101102
14:00+21w4552100 0.8 10091855
17:00+23w364347 0.0 10082112
20:00+18w58665 0.0 1010365
2 august, mon
mon223:00+13w359124 0.0 101199
02:00+12wsw2295100 0.0 101232
05:00+11w229798 0.1 101336
08:00+14wsw2488100 0.1 1014247
11:00+16w347699 0.3 1015662
14:00+20w345629 0.8 10141506
17:00+20w445714 0.7 10141389
20:00+18w237014 0.9 101456
3 august, tue
tue323:00+13wsw11865 0.3 101510
02:00+12se119025 0.3 101510
05:00+11sse1298100 0.1 101427
08:00+14s3596100 0.6 1014298
11:00+18sw3577100 1.5 1013558
14:00+17ssw4778100 3.3 1013657
17:00+18wsw68687 1.4 10131225
20:00+17nw237323 1.5 101388
4 august, wed
wed423:00+12n118989 0.0 101410
02:00+11n1191100 0.0 101510
05:00+11nne1191100 0.0 101410
08:00+12e1194100 0.9 101445
11:00+12n1195100 1.3 1014100
14:00+14w1192100 1.6 1015213
17:00+14s1191100 0.0 1015174
20:00+13ssw1195100 0.1 101523
5 august, thu
thu523:00+13ssw1194100 0.0 101612
02:00+12sw119597 0.0 101514
05:00+12s1196100 0.0 101415
08:00+13s119288 0.0 1014163
11:00+17sse3373100 0.0 1013817
14:00+20s3455100 0.1 10121495
17:00+20sw456064 0.0 10101136
20:00+17sw37787 0.3 1010188